"Pseudo-MPEC" for P115zVh

Created 2020 Sep 19 0:07:33 UT using Find_Orb

Click here for an explanation of pseudo-MPECs

 
 Astrometry: 
     P115zVh  C2020 09 12ui%uAstrometryJ]wh@\Rlxem%D$ItTjkGb2!PwA%!Exg][?O3^wF51
     P115zVh  C2020 09 12l(!oWU9HV5Wre/rEPRFOny=+4\5Gufn#gcZv#]R%rcQ7rJ]V]RJ\F51
     P115zVh  C2020 09 12I0p+Er1@^R)r(`/4?[wqsJA0LwGX!^'e.gdZGu_'*X/DgCdIu[vEF51
     P115zVh ^C2020 09 14.37066022 59 58.104-10 35 03.03   ~9EAM 22.32GVNEOCP568
     P115zVh ^C2020 09 14.37183722 59 58.177-10 35 01.57   ~9EAM 22.37GVNEOCP568
     P115zVh ^C2020 09 14.37302222 59 58.250-10 35 00.00   ~9EAM 22.43GVNEOCP568
     P115zVh  C2020 09 15V`K--^.keNT,84T459oredacted;sK%=9'wblvRHK9,4_Kb9XTM2F51
     P115zVh  C2020 09 15B%85QqSDsZ:qw,mo^oAQ!/6MKO_%WKHsclickP:/[1Y*PsUM%#C=F51
     P115zVh  C2020 09 15LoNM_URinWF?YsIs\+^xdiO8xV=US5(q^0xC?P23b2RA,!oh`SAKF51
     P115zVh KC2020 09 16vJcuZZ*4I2+-v*Q;4cNvPZ\6g$v@E!=Il*yvc#09a;UvX]r.here711
     P115zVh KC2020 09 16rjforj.WI*RH`or$;VWktZTQjH9+#ic:;Lf,t=eYoh?`CYUKj5Yu711
     P115zVh KC2020 09 16Y'h^W[Ss-?YJnviMFWFdqCxgx#1g\-Fud-/-O91C5UJ52pT^mR%l711
     P115zVh  C2020 09 16U7YkxZ/MxfZxu:,$S=GCrKXexplanation_A2w5[M9n?kN(?'nS%F51
     P115zVh  C2020 09 16DHeHU]JxUu1nqwk`HAi;ib-rky_3$)[D,7'Vi6Q+xPbnx]7nM!EkF51

Station data:
(568) Mauna Kea  (N19.826116 W155.472200)  US/Hawaii.
(711) McDonald Observatory, Fort Davis  (N30.671481 W104.021500)  US/Texas.
   0.76-m f/3.0 reflector.
(F51) Pan-STARRS 1, Haleakala  (N20.707235 W156.255910)  US/Hawaii.
   Observers N. Primak, A. Schultz, S. Watters, J. Thiel, T. Goggia. Measurer
   PS1 Science Consortium. 1.8-m Ritchey-Chrétien + CCD.

Orbital elements:  P115zVh
   Perihelion 2020 Oct 4.198912 +/- 0.222 TT =  4:46:26 (JD 2459126.698912)
Epoch 2020 Sep 16.0 TT = JDT 2459108.5   Earth MOID: 0.2483   Ju: 0.0791
M 357.16874935 +/- 0.36             Ma: 0.0043                AutoNEOCP
n   0.15557251 +/- 0.0217           Peri.    3.14592 +/- 0.21
a   3.42384523 +/- 0.318            Node     4.18174 +/- 0.12
e   0.6349306 +/- 0.0311            Incl.    3.26858 +/- 0.11
P   6.34                   H 24.3   G  0.15   U 10.2  
q 1.24994092 +/- 0.00983    Q 5.59774955 +/- 0.656
From 14 observations 2020 Sept. 12-16; mean residual 0".51
Residuals in arcseconds: 
200912 F51  .03+  .05+    200914 568  .01+  .08-    200916 711  .87-  1.3+    
200912 F51  .11-  .20+    200915 F51  .46+  .03-    200916 711  1.0-  .52+    
200912 F51  .08-  .06-    200915 F51  .19+  .02-    200916 F51  .07+  .09-    
200914 568  .04+  .11-    200915 F51  .05+  .16-    200916 F51  .14+  .21-    
200914 568  .03+  .15-    200916 711  1.2+  1.2-    

Ephemerides (geocentric):
Date (UTC) HH   RA              Dec         delta   r     elong  mag " sig PA
---- -- -- --  -------------   -----------  ------ ------ -----  --- ---- ---
2020 09 19 00  23 06 05.863   -08 50 56.80  .26400 1.2637 167.6 22.6 1.61  39
2020 09 19 01  23 06 09.363   -08 49 57.84  .26395 1.2636 167.6 22.6 1.63  39
2020 09 19 02  23 06 12.867   -08 48 58.82  .26390 1.2636 167.6 22.6 1.65  40
2020 09 19 03  23 06 16.373   -08 47 59.75  .26385 1.2635 167.6 22.6 1.68  40
2020 09 19 04  23 06 19.884   -08 47 00.63  .26380 1.2634 167.5 22.6 1.70  41
2020 09 19 05  23 06 23.397   -08 46 01.47  .26375 1.2633 167.5 22.6 1.72  41
2020 09 19 06  23 06 26.914   -08 45 02.25  .26371 1.2633 167.5 22.6 1.74  42
2020 09 19 07  23 06 30.435   -08 44 02.99  .26366 1.2632 167.5 22.6 1.77  42
2020 09 19 08  23 06 33.958   -08 43 03.67  .26361 1.2631 167.5 22.6 1.79  43
2020 09 19 09  23 06 37.486   -08 42 04.31  .26356 1.2631 167.4 22.6 1.81  43
2020 09 19 10  23 06 41.016   -08 41 04.90  .26351 1.2630 167.4 22.6 1.84  44
2020 09 19 11  23 06 44.551   -08 40 05.44  .26347 1.2629 167.4 22.6 1.86  44
2020 09 19 12  23 06 48.088   -08 39 05.93  .26342 1.2628 167.4 22.6 1.89  44
2020 09 19 13  23 06 51.629   -08 38 06.37  .26337 1.2628 167.4 22.6 1.91  45
2020 09 19 14  23 06 55.174   -08 37 06.77  .26333 1.2627 167.4 22.6 1.94  45
2020 09 19 15  23 06 58.722   -08 36 07.11  .26328 1.2626 167.3 22.6 1.96  46
2020 09 19 16  23 07 02.273   -08 35 07.41  .26323 1.2625 167.3 22.6 1.99  46
2020 09 19 17  23 07 05.828   -08 34 07.66  .26319 1.2625 167.3 22.6 2.01  46
2020 09 19 18  23 07 09.387   -08 33 07.86  .26314 1.2624 167.3 22.6 2.04  47
2020 09 19 19  23 07 12.948   -08 32 08.01  .26310 1.2623 167.3 22.6 2.06  47
2020 09 19 20  23 07 16.514   -08 31 08.11  .26305 1.2623 167.2 22.6 2.09  48
2020 09 19 21  23 07 20.082   -08 30 08.17  .26301 1.2622 167.2 22.6 2.12  48
2020 09 19 22  23 07 23.654   -08 29 08.18  .26296 1.2621 167.2 22.6 2.14  48
2020 09 19 23  23 07 27.230   -08 28 08.14  .26292 1.2620 167.2 22.6 2.17  49
2020 09 20 00  23 07 30.809   -08 27 08.05  .26287 1.2620 167.2 22.6 2.20  49
2020 09 20 01  23 07 34.392   -08 26 07.91  .26283 1.2619 167.2 22.6 2.23  49
2020 09 20 02  23 07 37.978   -08 25 07.73  .26278 1.2618 167.1 22.6 2.25  50
2020 09 20 03  23 07 41.567   -08 24 07.50  .26274 1.2618 167.1 22.6 2.28  50
2020 09 20 04  23 07 45.160   -08 23 07.22  .26270 1.2617 167.1 22.6 2.31  50
2020 09 20 05  23 07 48.757   -08 22 06.89  .26265 1.2616 167.1 22.6 2.34  51
2020 09 20 06  23 07 52.357   -08 21 06.52  .26261 1.2616 167.1 22.6 2.37  51
2020 09 20 07  23 07 55.960   -08 20 06.10  .26257 1.2615 167.0 22.6 2.40  51
2020 09 20 08  23 07 59.567   -08 19 05.63  .26252 1.2614 167.0 22.6 2.43  52
2020 09 20 09  23 08 03.177   -08 18 05.11  .26248 1.2614 167.0 22.6 2.46  52
2020 09 20 10  23 08 06.791   -08 17 04.55  .26244 1.2613 167.0 22.6 2.49  52
2020 09 20 11  23 08 10.408   -08 16 03.94  .26240 1.2612 167.0 22.6 2.52  53
2020 09 20 12  23 08 14.029   -08 15 03.28  .26236 1.2611 167.0 22.6 2.55  53
2020 09 20 13  23 08 17.654   -08 14 02.58  .26231 1.2611 166.9 22.6 2.58  53
2020 09 20 14  23 08 21.281   -08 13 01.83  .26227 1.2610 166.9 22.6 2.61  54
2020 09 20 15  23 08 24.913   -08 12 01.03  .26223 1.2609 166.9 22.6 2.64  54
2020 09 20 16  23 08 28.547   -08 11 00.19  .26219 1.2609 166.9 22.6 2.67  54
2020 09 20 17  23 08 32.186   -08 09 59.30  .26215 1.2608 166.9 22.6 2.70  55
2020 09 20 18  23 08 35.827   -08 08 58.36  .26211 1.2607 166.8 22.6 2.74  55
2020 09 20 19  23 08 39.473   -08 07 57.38  .26207 1.2607 166.8 22.6 2.77  55
2020 09 20 20  23 08 43.121   -08 06 56.35  .26203 1.2606 166.8 22.6 2.80  55
2020 09 20 21  23 08 46.774   -08 05 55.27  .26199 1.2605 166.8 22.6 2.83  56
2020 09 20 22  23 08 50.429   -08 04 54.15  .26195 1.2605 166.8 22.6 2.87  56
2020 09 20 23  23 08 54.088   -08 03 52.98  .26191 1.2604 166.8 22.6 2.90  56